Location: Newark
(49.3808°N, 3.1844°E)
Time: 00:43:28
(UTC+00:00)

Vanguard 1 Rocket - Pass Details

Date: 23 November 2019
Orbit: 650 x 4226 km, 34.3° (Epoch: 09 December)

Event Time Altitude Azimuth Distance (km) Brightness Sun altitude
Rises 04:18:37 0° 239° (WSW) 2,994 - -27.3°
Reaches altitude 10° 04:22:03 10° 210° (SSW) 2,049 - -26.8°
Maximum altitude 04:24:09 13° 181° (S) 1,899 - -26.4°
Exits shadow 04:24:11 13° 180° (S) 1,900 9.0 -26.4°
Drops below altitude 10° 04:26:25 10° 152° (SSE) 2,225 9.7 -26.1°
Sets 04:30:30 0° 125° (SE) 3,508 11.3 -25.4°
